Location: ?????????
(54.7630°N, 39.4991°E)
Time: 08:13:17
(UTC+00:00)

Cosmos 1833 Rocket - Pass Details

Date: 14 April 2026
Orbit: 832 x 838 km, 71.0° (Epoch: 9 May)

Event Time Altitude Azimuth Distance (km) Brightness Sun altitude
Exits shadow 21:54:14 33° 115° (ESE) 1,384 3.6 -25.2°
Maximum altitude 21:54:36 33° 108° (ESE) 1,376 3.7 -25.2°
Drops below altitude 10° 21:59:33 10° 46° (NE) 2,452 5.8 -25.1°
Sets 22:02:12 0° 37° (NE) 3,391 6.9 -25.0°
